Location: *
(46.3500°N, 10.9000°E)
Time: 22:03:16
(UTC+00:00)

Explorer 7 - Pass Details

Date: 28 April 2021
Orbit: 484 x 677 km, 50.3° (Epoch: 05 May)

Event Time Altitude Azimuth Distance (km) Brightness Sun altitude
Rises 22:51:05 0° 286° (WNW) 2,761 10.7 -29.0°
Enters shadow 22:52:37 - 277° (W) 2,256 10.1 -29.0°
Reaches altitude 10° 22:53:51 10° 267° (W) 1,901 - -29.0°
Maximum altitude 22:56:50 18° 224° (SW) 1,483 - -29.1°
Drops below altitude 10° 22:59:54 10° 181° (S) 1,977 - -29.1°
Sets 23:02:52 0° 163° (SSE) 2,917 - -29.1°
